When you browse on this site, cookies collect data to enhance your experience and personalize the content and advertising you see.
Visit our Privacy Policy to learn more. By continuing to use the site, you agree to this use of cookies and data.
  • In Hungary
  • List of Countries
  • For 7 days
  • Water Temperature
  • Satellite Maps
  • Weather Map
  • News
  • Weather Widgets
  • user-avatar
    Login

    Hourly Weather Jugowice

    Today, 18 April, Thursday

    Time Temperature Precipitation Wind Pressure Humidity
    00:00 +5°C° 0 mm 0 mps 730 mmHg 79%
    01:00 +5°C° 0 mm 0 mps 730 mmHg 75%
    02:00 +5°C° 0 mm 0 mps 730 mmHg 76%
    03:00 +5°C° 0 mm 0 mps 730 mmHg 76%
    04:00 +4°C° 0 mm 0 mps 730 mmHg 76%
    05:00 +6°C° 0 mm 0 mps 731 mmHg 73%
    06:00 +7°C° 0 mm 0 mps 731 mmHg 69%
    07:00 +10°C° 0 mm 1 mps 732 mmHg 64%
    08:00 +10°C° 0 mm 2 mps 732 mmHg 60%
    09:00 +12°C° 0 mm 3 mps 732 mmHg 56%
    10:00 +14°C° 0 mm 3 mps 732 mmHg 52%
    11:00 +14°C° 0 mm 4 mps 732 mmHg 50%
    12:00 +15°C° 0 mm 4 mps 732 mmHg 49%
    13:00 +17°C° 0 mm 4 mps 732 mmHg 48%
    14:00 +17°C° 0 mm 4 mps 732 mmHg 48%
    15:00 +17°C° 0 mm 4 mps 732 mmHg 49%
    16:00 +17°C° 0 mm 4 mps 732 mmHg 49%
    17:00 +14°C° 0 mm 3 mps 732 mmHg 57%
    18:00 +12°C° 0 mm 3 mps 732 mmHg 64%
    19:00 +10°C° 0 mm 2 mps 732 mmHg 71%
    20:00 +10°C° 0 mm 1 mps 732 mmHg 73%
    21:00 +9°C° 0 mm 1 mps 732 mmHg 75%
    22:00 +8°C° 0 mm 1 mps 733 mmHg 77%
    23:00 +8°C° 0 mm 1 mps 733 mmHg 77%

    Tomorrow, 19 April, Friday

    Time Temperature Precipitation Wind Pressure Humidity
    00:00 +7°C° 0 mm 0 mps 733 mmHg 78%
    01:00 +6°C° 0 mm 0 mps 733 mmHg 78%
    02:00 +6°C° 0 mm 0 mps 733 mmHg 78%
    03:00 +6°C° 0 mm 0 mps 733 mmHg 78%
    04:00 +5°C° 0 mm 0 mps 733 mmHg 79%
    05:00 +7°C° 0 mm 0 mps 734 mmHg 75%
    06:00 +9°C° 0 mm 1 mps 734 mmHg 71%
    07:00 +10°C° 0 mm 1 mps 734 mmHg 68%
    08:00 +12°C° 0 mm 1 mps 734 mmHg 62%
    09:00 +14°C° 0 mm 2 mps 735 mmHg 57%
    10:00 +14°C° 0 mm 3 mps 735 mmHg 52%
    11:00 +16°C° 0 mm 3 mps 735 mmHg 51%
    12:00 +17°C° 0 mm 3 mps 735 mmHg 49%
    13:00 +18°C° 0 mm 4 mps 734 mmHg 48%
    14:00 +18°C° 0 mm 4 mps 734 mmHg 48%
    15:00 +17°C° 0 mm 4 mps 734 mmHg 48%
    16:00 +17°C° 0 mm 4 mps 734 mmHg 48%
    17:00 +14°C° 0 mm 3 mps 733 mmHg 55%
    18:00 +13°C° 0 mm 2 mps 733 mmHg 63%
    19:00 +10°C° 0 mm 2 mps 733 mmHg 70%
    20:00 +10°C° 0 mm 1 mps 733 mmHg 71%
    21:00 +9°C° 0 mm 1 mps 733 mmHg 73%
    22:00 +8°C° 0 mm 1 mps 733 mmHg 74%
    23:00 +8°C° 0 mm 1 mps 733 mmHg 74%

    Day after tomorrow, 20 April, Saturday

    Time Temperature Precipitation Wind Pressure Humidity
    00:00 +6°C° 0 mm 0 mps 733 mmHg 73%
    01:00 +6°C° 0 mm 0 mps 733 mmHg 73%
    02:00 +6°C° 0 mm 0 mps 733 mmHg 74%
    03:00 +5°C° 0 mm 0 mps 733 mmHg 75%
    04:00 +5°C° 0 mm 0 mps 733 mmHg 75%
    05:00 +7°C° 0 mm 0 mps 733 mmHg 71%
    06:00 +8°C° 0 mm 0 mps 733 mmHg 67%
    07:00 +10°C° 0 mm 0 mps 733 mmHg 63%
    08:00 +12°C° 0 mm 1 mps 733 mmHg 57%
    09:00 +14°C° 0 mm 1 mps 733 mmHg 50%
    10:00 +16°C° 0 mm 2 mps 733 mmHg 44%
    11:00 +16°C° 0 mm 2 mps 733 mmHg 43%
    12:00 +17°C° 0 mm 2 mps 732 mmHg 41%
    13:00 +17°C° 0 mm 2 mps 732 mmHg 40%
    14:00 +17°C° 0 mm 3 mps 732 mmHg 42%
    15:00 +17°C° 0 mm 3 mps 731 mmHg 44%
    16:00 +17°C° 0 mm 3 mps 731 mmHg 46%
    17:00 +14°C° 0 mm 3 mps 730 mmHg 52%
    18:00 +13°C° 0 mm 2 mps 730 mmHg 58%
    19:00 +10°C° 0 mm 2 mps 730 mmHg 65%
    20:00 +9°C° 0 mm 2 mps 730 mmHg 63%
    21:00 +8°C° 0 mm 1 mps 730 mmHg 62%
    22:00 +6°C° 0 mm 0 mps 730 mmHg 61%
    23:00 +6°C° 0 mm 0 mps 729 mmHg 62%

    21 April, Sunday

    Time Temperature Precipitation Wind Pressure Humidity
    00:00 +5°C° 0 mm 0 mps 729 mmHg 63%
    01:00 +6°C° 0 mm 1 mps 729 mmHg 64%
    02:00 +6°C° 0 mm 1 mps 729 mmHg 68%
    03:00 +5°C° 0 mm 1 mps 729 mmHg 72%
    04:00 +5°C° 0 mm 1 mps 728 mmHg 76%
    05:00 +6°C° 0 mm 1 mps 729 mmHg 73%
    06:00 +8°C° 0 mm 1 mps 729 mmHg 71%
    07:00 +9°C° 0 mm 1 mps 729 mmHg 68%
    08:00 +11°C° 0 mm 1 mps 729 mmHg 62%
    09:00 +12°C° 0 mm 2 mps 729 mmHg 56%
    10:00 +12°C° 0 mm 3 mps 728 mmHg 49%
    11:00 +13°C° 0 mm 3 mps 728 mmHg 48%
    12:00 +14°C° 0 mm 3 mps 728 mmHg 46%
    13:00 +14°C° 0 mm 3 mps 727 mmHg 44%
    14:00 +14°C° 0 mm 3 mps 727 mmHg 45%
    15:00 +14°C° 0 mm 3 mps 726 mmHg 46%
    16:00 +14°C° 0 mm 3 mps 726 mmHg 47%
    17:00 +14°C° 0 mm 2 mps 726 mmHg 53%
    18:00 +12°C° 0 mm 1 mps 725 mmHg 59%
    19:00 +10°C° 0 mm 1 mps 725 mmHg 65%
    20:00 +9°C° 0 mm 1 mps 725 mmHg 66%
    21:00 +8°C° 0 mm 1 mps 725 mmHg 67%
    22:00 +8°C° 0 mm 1 mps 725 mmHg 68%
    23:00 +8°C° 0 mm 1 mps 725 mmHg 68%

    22 April, Monday

    Time Temperature Precipitation Wind Pressure Humidity
    00:00 +7°C° 0 mm 1 mps 724 mmHg 68%
    01:00 +7°C° 0 mm 1 mps 724 mmHg 68%
    02:00 +7°C° 0 mm 1 mps 724 mmHg 68%
    03:00 +7°C° 0 mm 1 mps 723 mmHg 68%
    04:00 +6°C° 0 mm 1 mps 723 mmHg 69%
    05:00 +8°C° 0 mm 1 mps 723 mmHg 66%
    06:00 +8°C° 0 mm 0 mps 723 mmHg 63%
    07:00 +10°C° 0 mm 0 mps 723 mmHg 60%
    08:00 +12°C° 0 mm 1 mps 723 mmHg 56%
    09:00 +13°C° 0 mm 1 mps 723 mmHg 53%
    10:00 +15°C° 0 mm 2 mps 723 mmHg 50%
    11:00 +15°C° 0.3 mm 2 mps 722 mmHg 52%
    12:00 +14°C° 0.3 mm 3 mps 722 mmHg 55%
    13:00 +14°C° 0.3 mm 3 mps 722 mmHg 58%
    14:00 +13°C° 0.7 mm 3 mps 721 mmHg 64%
    15:00 +12°C° 0.7 mm 4 mps 721 mmHg 71%
    16:00 +11°C° 0.7 mm 4 mps 720 mmHg 77%
    17:00 +10°C° 0.4 mm 3 mps 720 mmHg 83%
    18:00 +9°C° 0.4 mm 3 mps 720 mmHg 88%
    19:00 +8°C° 0.4 mm 2 mps 720 mmHg 94%
    20:00 +8°C° 0.8 mm 2 mps 720 mmHg 94%
    21:00 +8°C° 0.8 mm 2 mps 719 mmHg 95%
    22:00 +9°C° 0.8 mm 2 mps 719 mmHg 95%
    23:00 +8°C° 0.1 mm 2 mps 719 mmHg 94%

    23 April, Tuesday

    Time Temperature Precipitation Wind Pressure Humidity
    00:00 +8°C° 0.1 mm 2 mps 718 mmHg 92%
    01:00 +7°C° 0.1 mm 3 mps 718 mmHg 91%
    02:00 +7°C° 0 mm 3 mps 718 mmHg 91%
    03:00 +7°C° 0 mm 3 mps 717 mmHg 91%
    04:00 +5°C° 0 mm 3 mps 717 mmHg 91%
    05:00 +7°C° 0 mm 4 mps 717 mmHg 88%
    06:00 +8°C° 0 mm 5 mps 718 mmHg 85%
    07:00 +9°C° 0 mm 6 mps 718 mmHg 82%
    08:00 +10°C° 0 mm 6 mps 718 mmHg 77%
    09:00 +11°C° 0 mm 7 mps 718 mmHg 71%
    10:00 +13°C° 0 mm 8 mps 719 mmHg 66%
    11:00 +13°C° 0.1 mm 8 mps 719 mmHg 65%
    12:00 +13°C° 0.1 mm 8 mps 719 mmHg 64%
    13:00 +15°C° 0.1 mm 7 mps 718 mmHg 64%
    14:00 +14°C° 0 mm 7 mps 718 mmHg 64%
    15:00 +14°C° 0 mm 7 mps 718 mmHg 64%
    16:00 +14°C° 0 mm 7 mps 718 mmHg 65%
    17:00 +13°C° 0 mm 6 mps 718 mmHg 69%
    18:00 +10°C° 0 mm 5 mps 718 mmHg 73%
    19:00 +9°C° 0 mm 5 mps 718 mmHg 77%
    20:00 +10°C° 0 mm 4 mps 719 mmHg 79%
    21:00 +8°C° 0 mm 4 mps 719 mmHg 80%
    22:00 +8°C° 0 mm 4 mps 719 mmHg 81%
    23:00 +9°C° 0 mm 3 mps 719 mmHg 83%
    Show more